NORTHERN QUEENS  -  Air Quality Alert Air Quality Alert        SOUTHERN QUEENS  -  Air Quality Alert Air Quality Alert      

Active alerts

Northern Queens
  Details for Northern Queens Air Quality Alert
Southern Queens
  Details for Southern Queens Air Quality Alert


WXM80 ListenWXM80 Stop

You find our weather info also at:

UK Metoffice

WeatherCloud

Weather Underground

Northeastern Weather Network

AWEKAS

Citizen Weather Observer Program (CWOP)

HAMweather, WeatherForYou, PWS Weather


Weather Underground History page Text

Daily Summary for August 8, 2017 Units:  Metric    English   Both
« Previous Day
Next Day »
Daily Weekly Monthly Yearly Custom
  High: Low: Average:
Temperature: 27.1 °C 18.7 °C 21.3 °C
Dew Point: 20.1 °C 16.2 °C 18.3 °C
Humidity: 97 % 60 % 84 %
Wind Speed: 13 km/h 0 km/h 2.7 km/h
Wind Gust: 20.4 km/h - -
Wind:- - SSE
Pressure: 1017.2 hPa 1009.7 hPa -
Precipitation: 0.25 mm    
Historical Graphs
 
 
Tabular Data for August 8, 2017
Time Temperature Dew Point Pressure Wind Wind Speed Wind Gust Humidity Rainfall Rate (Hourly)
00:08 18.8 °C 18.3 °C 1010.7 hPa Calm     97 % 0 mm
00:13 18.8 °C 18.3 °C 1010.7 hPa Calm   1.9 km/h 97 % 0 mm
00:18 18.8 °C 18.3 °C 1010.7 hPa ENE 0.2 km/h 5.6 km/h 97 % 0 mm
00:23 18.8 °C 18.3 °C 1010.7 hPa ENE 0.5 km/h 3.7 km/h 97 % 0 mm
00:28 18.8 °C 18.3 °C 1010.7 hPa Calm     97 % 0 mm
00:33 18.9 °C 18.4 °C 1010.7 hPa ENE 0.2 km/h 1.9 km/h 97 % 0 mm
00:38 18.9 °C 18.4 °C 1010.7 hPa ENE 0.2 km/h 3.7 km/h 97 % 0 mm
00:43 18.9 °C 18.4 °C 1010.7 hPa NE 1.9 km/h 5.6 km/h 97 % 0 mm
00:48 18.9 °C 18.4 °C 1010.7 hPa NE 1.8 km/h 3.7 km/h 97 % 0 mm
00:53 18.9 °C 18.4 °C 1010.4 hPa ENE 2.4 km/h 6.4 km/h 97 % 0 mm
00:59 19 °C 18.5 °C 1010.4 hPa NE 1 km/h 7.4 km/h 97 % 0 mm
01:04 19 °C 18.5 °C 1010.4 hPa NE 1.4 km/h 3.7 km/h 97 % 0 mm
01:09 19.1 °C 18.6 °C 1010 hPa NE 1.9 km/h 5.6 km/h 97 % 0 mm
01:14 19.1 °C 18.6 °C 1010 hPa NE 3.1 km/h 6.4 km/h 97 % 0 mm
01:19 19.1 °C 18.6 °C 1010 hPa ENE 3.1 km/h 6.4 km/h 97 % 0 mm
01:24 19.1 °C 18.6 °C 1010 hPa ENE 3.1 km/h 7.4 km/h 97 % 0 mm
01:29 19.1 °C 18.6 °C 1010 hPa ENE 3.4 km/h 5.6 km/h 97 % 0 mm
01:34 19.1 °C 18.6 °C 1010 hPa North 0.5 km/h 5.6 km/h 97 % 0 mm
01:39 19.1 °C 18.6 °C 1010 hPa NNE 3.7 km/h 9.3 km/h 97 % 0 mm
01:44 19.1 °C 18.6 °C 1010 hPa NE 4.2 km/h 9.3 km/h 97 % 0 mm
01:49 19.1 °C 18.6 °C 1010 hPa North 3.7 km/h 11.3 km/h 97 % 0 mm
01:54 19.1 °C 18.6 °C 1010 hPa North 6.6 km/h 13 km/h 97 % 0 mm
01:59 19.1 °C 18.6 °C 1009.7 hPa NNE 8.4 km/h 12.9 km/h 97 % 0 mm
02:04 19.1 °C 18.6 °C 1010 hPa NNE 9.5 km/h 14.8 km/h 97 % 0 mm
02:09 19.1 °C 18.6 °C 1009.7 hPa NNE 6.8 km/h 14.5 km/h 97 % 0 mm
02:14 19.1 °C 18.6 °C 1010 hPa North 5.3 km/h 9.3 km/h 97 % 0 mm
02:19 19 °C 18.5 °C 1010 hPa NNE 8 km/h 11.1 km/h 97 % 0 mm
02:22 18.9 °C 18.4 °C 1009.7 hPa NNE 7.9 km/h 14.8 km/h 97 % 0 mm
02:27 18.9 °C 18.4 °C 1010 hPa NE 2.3 km/h 5.6 km/h 97 % 0 mm
02:32 18.9 °C 18.4 °C 1010 hPa NE 2.9 km/h 8 km/h 97 % 0 mm
02:37 18.9 °C 18.4 °C 1010 hPa NNE 6.9 km/h 13 km/h 97 % 0 mm
02:42 18.9 °C 18.4 °C 1009.7 hPa NNE 4.8 km/h 7.4 km/h 97 % 0 mm
02:47 18.9 °C 18.4 °C 1009.7 hPa NNE 1 km/h 3.7 km/h 97 % 0 mm
02:52 18.9 °C 18.4 °C 1009.7 hPa ENE 7.7 km/h 11.3 km/h 97 % 0 mm
02:57 18.9 °C 18.4 °C 1009.7 hPa NNE 3.1 km/h 6.4 km/h 97 % 0 mm
03:02 18.8 °C 18.3 °C 1010 hPa ENE 3.7 km/h 5.6 km/h 97 % 0 mm
03:07 18.8 °C 18.3 °C 1010 hPa NE 3.9 km/h 6.4 km/h 97 % 0 mm
03:12 18.8 °C 18.3 °C 1010 hPa ENE 4.2 km/h 5.6 km/h 97 % 0 mm
03:17 18.9 °C 18.4 °C 1010 hPa NE 2.3 km/h 5.6 km/h 97 % 0 mm
03:22 18.8 °C 18.3 °C 1009.7 hPa NNE 6.3 km/h 11.1 km/h 97 % 0 mm
03:27 18.8 °C 18.3 °C 1010 hPa NE 0.2 km/h 5.6 km/h 97 % 0 mm
03:32 18.8 °C 18.3 °C 1010 hPa North 3.1 km/h 5.6 km/h 97 % 0 mm
03:37 18.8 °C 18.3 °C 1009.7 hPa NNE 2.6 km/h 3.7 km/h 97 % 0 mm
03:42 18.8 °C 18.3 °C 1010 hPa NNE 4.3 km/h 7.4 km/h 97 % 0 mm
03:47 18.8 °C 18.3 °C 1010 hPa NNE 1.6 km/h 7.4 km/h 97 % 0 mm
03:52 18.8 °C 18.3 °C 1010 hPa NNE 2.3 km/h 5.6 km/h 97 % 0 mm
03:57 18.8 °C 18.3 °C 1010 hPa ENE 1.3 km/h 5.6 km/h 97 % 0 mm
04:02 18.8 °C 18.3 °C 1009.7 hPa NNE 1.6 km/h 5.6 km/h 97 % 0 mm
04:07 18.8 °C 18.3 °C 1009.7 hPa NE 2.4 km/h 7.4 km/h 97 % 0 mm
04:12 18.8 °C 18.3 °C 1009.7 hPa NNW 3.5 km/h 6.4 km/h 97 % 0 mm
04:17 18.8 °C 18.3 °C 1009.7 hPa NNE 0.3 km/h 1.9 km/h 97 % 0 mm
04:22 18.8 °C 18.3 °C 1009.7 hPa ENE 2.1 km/h 5.6 km/h 97 % 0 mm
04:27 18.7 °C 18.2 °C 1009.7 hPa ENE 2.4 km/h 6.4 km/h 97 % 0 mm
04:32 18.8 °C 18.3 °C 1009.7 hPa NNE 0.6 km/h 3.7 km/h 97 % 0 mm
04:37 18.8 °C 18.3 °C 1009.7 hPa Calm   1.9 km/h 97 % 0 mm
04:42 18.7 °C 18.2 °C 1009.7 hPa NE 1.3 km/h 4.8 km/h 97 % 0 mm
04:47 18.7 °C 18.2 °C 1009.7 hPa NE 1.3 km/h 5.6 km/h 97 % 0 mm
04:52 18.7 °C 18.2 °C 1009.7 hPa North 1.6 km/h 7.4 km/h 97 % 0 mm
04:57 18.7 °C 18.2 °C 1010 hPa NNE 1.3 km/h 5.6 km/h 97 % 0 mm
05:03 18.7 °C 18.2 °C 1010 hPa NNE 1.4 km/h 3.7 km/h 97 % 0 mm
05:08 18.7 °C 18.2 °C 1010 hPa NNE 5.6 km/h 9.3 km/h 97 % 0 mm
05:13 18.7 °C 18.2 °C 1009.7 hPa NNE 1.9 km/h 5.6 km/h 97 % 0 mm
05:18 18.7 °C 18.2 °C 1009.7 hPa North 2.4 km/h 9.3 km/h 97 % 0 mm
05:23 18.7 °C 18.2 °C 1009.7 hPa NNE 2.6 km/h 5.6 km/h 97 % 0 mm
05:28 18.7 °C 18.2 °C 1009.7 hPa NNE 5.5 km/h 9.3 km/h 97 % 0 mm
05:33 18.7 °C 18.2 °C 1009.7 hPa North 3.1 km/h 7.4 km/h 97 % 0 mm
05:38 18.7 °C 18.2 °C 1010 hPa NNE 4.7 km/h 7.4 km/h 97 % 0 mm
05:43 18.7 °C 18.2 °C 1010 hPa NNE 4.8 km/h 9.7 km/h 97 % 0 mm
05:48 18.7 °C 18.2 °C 1010 hPa NNW 3.4 km/h 7.4 km/h 97 % 0 mm
05:53 18.7 °C 18.2 °C 1010 hPa NNE 4.5 km/h 6.4 km/h 97 % 0 mm
05:58 18.7 °C 18.2 °C 1009.7 hPa NNE 4 km/h 5.6 km/h 97 % 0 mm
06:03 18.7 °C 18.2 °C 1009.7 hPa NNE 2.7 km/h 5.6 km/h 97 % 0 mm
06:08 18.7 °C 18.2 °C 1010 hPa NNE 2.1 km/h 5.6 km/h 97 % 0 mm
06:13 18.7 °C 18.2 °C 1010 hPa NNE 5 km/h 7.4 km/h 97 % 0 mm
06:18 18.7 °C 18.2 °C 1010 hPa NNE 3.2 km/h 5.6 km/h 97 % 0 mm
06:23 18.7 °C 18.2 °C 1010 hPa NNE 0.6 km/h 3.7 km/h 97 % 0 mm
06:28 18.7 °C 18.2 °C 1010 hPa Calm   1.9 km/h 97 % 0 mm
06:33 18.7 °C 18.2 °C 1010.4 hPa NNE 3.7 km/h 8 km/h 97 % 0 mm
06:38 18.7 °C 18.2 °C 1010.4 hPa North 4.3 km/h 5.6 km/h 97 % 0 mm
06:43 18.7 °C 18.2 °C 1010.4 hPa North 0.6 km/h 5.6 km/h 97 % 0 mm
06:49 18.7 °C 18.2 °C 1010.4 hPa NNE 3.7 km/h 4.8 km/h 97 % 0 mm
06:54 18.7 °C 18.2 °C 1010 hPa NNE 1.6 km/h 5.6 km/h 97 % 0 mm
06:59 18.7 °C 18.2 °C 1010 hPa NNE 2.6 km/h 5.6 km/h 97 % 0 mm
07:04 18.7 °C 18.2 °C 1010 hPa NNE 4.8 km/h 5.6 km/h 97 % 0 mm
07:09 18.7 °C 18.2 °C 1010.4 hPa North 1.1 km/h 4.8 km/h 97 % 0 mm
07:14 18.7 °C 18.2 °C 1010.4 hPa NNW 2.9 km/h 7.4 km/h 97 % 0 mm
07:19 18.7 °C 18.2 °C 1010.4 hPa NNE 3.9 km/h 5.6 km/h 97 % 0 mm
07:24 18.8 °C 18.3 °C 1010.4 hPa North 2.7 km/h 4.8 km/h 97 % 0 mm
07:29 18.8 °C 18.3 °C 1010.7 hPa NNW 3.9 km/h 5.6 km/h 97 % 0 mm
07:34 18.8 °C 18.3 °C 1010.7 hPa North 2.1 km/h 3.7 km/h 97 % 0 mm
07:36 18.8 °C 18.3 °C 1010.7 hPa Calm   5.6 km/h 97 % 0 mm
07:41 18.8 °C 18.3 °C 1010.7 hPa NNE 3.2 km/h 5.6 km/h 97 % 0 mm
07:46 18.8 °C 18.3 °C 1010.7 hPa NNE 4.2 km/h 5.6 km/h 97 % 0 mm
07:51 18.8 °C 18.3 °C 1010.7 hPa NNE 4.7 km/h 5.6 km/h 97 % 0 mm
07:56 18.8 °C 18.3 °C 1010.7 hPa NNW 1.9 km/h 5.6 km/h 97 % 0 mm
08:01 18.8 °C 18.3 °C 1011.1 hPa NNE 2.7 km/h 8 km/h 97 % 0 mm
08:06 18.9 °C 18.4 °C 1011.1 hPa North 3.5 km/h 5.6 km/h 97 % 0 mm
08:11 18.8 °C 18.3 °C 1011.1 hPa NNW 3.9 km/h 7.4 km/h 97 % 0 mm
08:16 18.9 °C 18.2 °C 1011.1 hPa NNE 6.9 km/h 7.4 km/h 96 % 0 mm
08:21 18.9 °C 18.3 °C 1011.1 hPa North 0.6 km/h 3.7 km/h 96 % 0 mm
08:26 18.9 °C 18.3 °C 1011.1 hPa North 5 km/h 6.4 km/h 96 % 0 mm
08:31 19 °C 18.3 °C 1011.1 hPa NNE 3.5 km/h 5.6 km/h 96 % 0 mm
08:36 19 °C 18.3 °C 1011.1 hPa NNW 6.3 km/h 9.3 km/h 96 % 0 mm
08:41 19.1 °C 18.4 °C 1011.1 hPa NNE 2.1 km/h 6.4 km/h 96 % 0 mm
08:46 19.2 °C 18.5 °C 1011.1 hPa NNE 1.8 km/h 5.6 km/h 96 % 0 mm
08:51 19.2 °C 18.5 °C 1011.1 hPa NW 1.8 km/h 5.6 km/h 96 % 0 mm
08:56 19.2 °C 18.6 °C 1011.1 hPa NNW 1.1 km/h 5.6 km/h 96 % 0 mm
09:01 19.3 °C 18.6 °C 1011.1 hPa NNW 5.5 km/h 9.7 km/h 96 % 0 mm
09:07 19.3 °C 18.6 °C 1011.4 hPa NNE 2.4 km/h 5.6 km/h 96 % 0 mm
09:12 19.3 °C 18.6 °C 1011.4 hPa NNE 1.8 km/h 3.2 km/h 96 % 0 mm
09:17 19.3 °C 18.6 °C 1011.4 hPa NNE 4.2 km/h 9.3 km/h 96 % 0 mm
09:22 19.3 °C 18.4 °C 1011.4 hPa North 6 km/h 9.7 km/h 95 % 0.25 mm
09:27 19.3 °C 18.4 °C 1011.4 hPa NNE 1.8 km/h 6.4 km/h 95 % 0.25 mm
09:32 19.3 °C 18.4 °C 1011.4 hPa NNE 6 km/h 9.3 km/h 95 % 0.25 mm
09:37 19.3 °C 18.4 °C 1011.7 hPa North 6.9 km/h 11.1 km/h 95 % 0.25 mm
09:42 19.3 °C 18.5 °C 1011.7 hPa NNE 2.4 km/h 7.4 km/h 95 % 0.25 mm
09:47 19.4 °C 18.6 °C 1011.7 hPa North 6 km/h 7.4 km/h 95 % 0.25 mm
09:52 19.4 °C 18.4 °C 1011.7 hPa NNW 2.6 km/h 7.4 km/h 94 % 0.25 mm
09:57 19.4 °C 18.4 °C 1011.7 hPa NNW 2.3 km/h 7.4 km/h 94 % 0.25 mm
10:02 19.5 °C 18.5 °C 1011.7 hPa NW 4.5 km/h 9.3 km/h 94 % 0.25 mm
10:07 19.6 °C 18.4 °C 1011.7 hPa North 2.6 km/h 9.3 km/h 93 % 0.25 mm
10:12 19.7 °C 18.5 °C 1011.7 hPa NE 8.2 km/h 11.1 km/h 93 % 0.25 mm
10:17 19.7 °C 18.4 °C 1012.1 hPa NNW 4 km/h 11.1 km/h 92 % 0.25 mm
10:22 19.8 °C 18.3 °C 1011.7 hPa NNW 1 km/h 3.7 km/h 91 % 0 mm
10:27 19.8 °C 18.3 °C 1011.7 hPa NNE 6.3 km/h 11.1 km/h 91 % 0 mm
10:32 19.9 °C 18.4 °C 1012.1 hPa North 6.6 km/h 9.3 km/h 91 % 0 mm
10:37 20 °C 18.5 °C 1011.7 hPa NW 3.1 km/h 7.4 km/h 91 % 0 mm
10:42 20.1 °C 18.2 °C 1012.1 hPa North 3.9 km/h 7.4 km/h 89 % 0 mm
10:47 20.1 °C 18.2 °C 1012.1 hPa NNW 6.6 km/h 13 km/h 89 % 0 mm
10:52 20.1 °C 18.2 °C 1012.1 hPa NNE 9 km/h 14.5 km/h 89 % 0 mm
10:57 20.1 °C 18.2 °C 1012.1 hPa NNE 7.2 km/h 13 km/h 89 % 0 mm
11:02 20.1 °C 18.1 °C 1012.1 hPa NW 12.1 km/h 18.5 km/h 88 % 0 mm
11:07 20.1 °C 18.1 °C 1012.1 hPa North 13 km/h 20.4 km/h 88 % 0 mm
11:12 20.1 °C 18.1 °C 1012.1 hPa North 3.2 km/h 7.4 km/h 88 % 0 mm
11:17 20.2 °C 18 °C 1012.1 hPa North 8.9 km/h 13 km/h 87 % 0 mm
11:22 20.3 °C 18.1 °C 1012.1 hPa NNE 9.2 km/h 16.7 km/h 87 % 0 mm
11:27 20.4 °C 18 °C 1012.1 hPa North 9.2 km/h 13 km/h 86 % 0 mm
11:32 20.5 °C 18.1 °C 1012.1 hPa NNE 7.9 km/h 13 km/h 86 % 0 mm
11:37 20.7 °C 18.2 °C 1012.4 hPa NNE 6.3 km/h 9.3 km/h 86 % 0 mm
11:42 20.8 °C 18.3 °C 1012.4 hPa NNE 6.3 km/h 9.3 km/h 86 % 0 mm
11:47 20.9 °C 18.3 °C 1012.1 hPa NNE 8.9 km/h 14.8 km/h 85 % 0 mm
11:48 20.9 °C 18.3 °C 1012.1 hPa North 6.6 km/h 14.8 km/h 85 % 0 mm
11:53 21.2 °C 18.6 °C 1012.4 hPa North 10.5 km/h 14.8 km/h 85 % 0 mm
11:58 21.3 °C 18.5 °C 1012.4 hPa NNE 6.1 km/h 11.1 km/h 84 % 0 mm
12:03 21.5 °C 18.7 °C 1012.8 hPa NNE 7.9 km/h 11.1 km/h 84 % 0 mm
12:08 21.6 °C 18.6 °C 1012.8 hPa NNW 2.6 km/h 7.4 km/h 83 % 0 mm
12:13 21.7 °C 18.5 °C 1012.8 hPa NNE 5.5 km/h 9.3 km/h 82 % 0 mm
12:18 21.8 °C 18.8 °C 1012.8 hPa NNW 2.6 km/h 5.6 km/h 83 % 0 mm
12:23 21.8 °C 18.6 °C 1012.8 hPa North 6.6 km/h 11.1 km/h 82 % 0 mm
12:28 21.9 °C 18.6 °C 1013.1 hPa NE 4.2 km/h 9.3 km/h 81 % 0 mm
12:33 22.1 °C 18.9 °C 1012.8 hPa NE 5.3 km/h 11.1 km/h 82 % 0 mm
12:38 22.6 °C 19.9 °C 1012.8 hPa North 3.1 km/h 7.4 km/h 85 % 0 mm
12:43 23.2 °C 19.7 °C 1012.8 hPa NNE 6.8 km/h 9.3 km/h 81 % 0 mm
12:48 23.6 °C 19.3 °C 1013.1 hPa North 5.1 km/h 11.3 km/h 77 % 0 mm
12:49 23.7 °C 19.6 °C 1013.1 hPa NNE 6.4 km/h 11.1 km/h 78 % 0 mm
12:54 24.1 °C 19.4 °C 1012.8 hPa North 6.8 km/h 11.1 km/h 75 % 0 mm
12:59 24.2 °C 19.1 °C 1013.1 hPa North 8.7 km/h 13 km/h 73 % 0 mm
13:04 24.3 °C 18.9 °C 1012.8 hPa North 4 km/h 6.4 km/h 72 % 0 mm
13:09 24.3 °C 19.2 °C 1013.1 hPa NNE 4.2 km/h 7.4 km/h 73 % 0 mm
13:14 24.4 °C 19.3 °C 1012.8 hPa NNE 6.1 km/h 9.7 km/h 73 % 0 mm
13:19 24.6 °C 19.4 °C 1013.1 hPa North 2.4 km/h 3.7 km/h 73 % 0 mm
13:24 24.9 °C 19.8 °C 1012.8 hPa NNE 2.6 km/h 9.3 km/h 73 % 0 mm
13:29 25.3 °C 19.4 °C 1013.1 hPa NNE 5.1 km/h 7.4 km/h 70 % 0 mm
13:34 25.4 °C 19.6 °C 1013.1 hPa North 2.3 km/h 8 km/h 70 % 0 mm
13:39 25.5 °C 19.2 °C 1012.8 hPa NNW 2.1 km/h 5.6 km/h 68 % 0 mm
13:44 25.6 °C 19.5 °C 1013.1 hPa WNW 4.2 km/h 7.4 km/h 69 % 0 mm
13:49 25.7 °C 19.1 °C 1013.1 hPa NNW 2.1 km/h 5.6 km/h 67 % 0 mm
13:54 25.8 °C 19.7 °C 1013.1 hPa NW 0.6 km/h 5.6 km/h 69 % 0 mm
13:59 25.8 °C 19.2 °C 1013.1 hPa WNW 3.4 km/h 8 km/h 67 % 0 mm
14:04 25.9 °C 20.1 °C 1013.1 hPa NW 0.5 km/h 5.6 km/h 70 % 0 mm
14:09 26 °C 19.9 °C 1013.1 hPa West 3.4 km/h 4.8 km/h 69 % 0 mm
14:14 26 °C 19.4 °C 1013.1 hPa West 1.6 km/h 4.8 km/h 67 % 0 mm
14:19 26.1 °C 19.7 °C 1013.1 hPa WNW 2.3 km/h 3.2 km/h 68 % 0 mm
14:24 26.2 °C 20.1 °C 1013.1 hPa NW 1.6 km/h 5.6 km/h 69 % 0 mm
14:29 26.3 °C 19.7 °C 1013.1 hPa NNE 1.6 km/h 1.9 km/h 67 % 0 mm
14:35 26.6 °C 19.9 °C 1013.1 hPa North 1.1 km/h 5.6 km/h 67 % 0 mm
14:40 26.6 °C 19.7 °C 1013.1 hPa WNW 0.6 km/h 5.6 km/h 66 % 0 mm
14:45 26.7 °C 19.8 °C 1013.1 hPa WNW 1.8 km/h 5.6 km/h 66 % 0 mm
14:49 26.7 °C 19.1 °C 1012.8 hPa West 2.4 km/h 5.6 km/h 63 % 0 mm
14:54 26.8 °C 18.9 °C 1013.1 hPa WNW 6 km/h 6.4 km/h 62 % 0 mm
14:59 26.9 °C 19.1 °C 1013.1 hPa NW 2.6 km/h 5.6 km/h 62 % 0 mm
15:04 27.1 °C 18.9 °C 1013.1 hPa WNW 2.4 km/h 5.6 km/h 61 % 0 mm
15:09 27.1 °C 19.2 °C 1013.1 hPa NW 2.1 km/h 5.6 km/h 62 % 0 mm
15:14 26.8 °C 19.7 °C 1013.1 hPa NW 1 km/h 3.7 km/h 65 % 0 mm
15:19 26.8 °C 19.4 °C 1013.1 hPa NNE 5 km/h 9.3 km/h 64 % 0 mm
15:24 26.8 °C 19.7 °C 1013.1 hPa NNW 0.8 km/h 3.7 km/h 65 % 0 mm
15:29 26.9 °C 19.2 °C 1013.1 hPa NNE 5.8 km/h 9.7 km/h 63 % 0 mm
15:34 26.9 °C 19.1 °C 1013.1 hPa West 4.2 km/h 8 km/h 62 % 0 mm
15:39 26.9 °C 19.1 °C 1013.1 hPa NNE 1.3 km/h 5.6 km/h 62 % 0 mm
15:44 26.8 °C 19.4 °C 1013.1 hPa NNW 1.1 km/h 5.6 km/h 64 % 0 mm
15:49 26.8 °C 19.9 °C 1013.1 hPa WNW 0.5 km/h 3.7 km/h 66 % 0 mm
15:54 26.8 °C 19.9 °C 1013.1 hPa NW 5.6 km/h 9.3 km/h 66 % 0 mm
15:59 26.8 °C 18.9 °C 1013.1 hPa WNW 2.9 km/h 9.3 km/h 62 % 0 mm
16:04 26.9 °C 19.8 °C 1013.1 hPa NE 3.1 km/h 7.4 km/h 65 % 0 mm
16:09 26.9 °C 19.2 °C 1013.1 hPa WNW 2.6 km/h 5.6 km/h 63 % 0 mm
16:14 26.8 °C 19.4 °C 1013.1 hPa NNW 3.1 km/h 7.4 km/h 64 % 0 mm
16:19 26.8 °C 18.9 °C 1013.1 hPa NW 6.3 km/h 14.8 km/h 62 % 0 mm
16:24 26.8 °C 18.9 °C 1013.1 hPa NNW 4 km/h 11.1 km/h 62 % 0 mm
16:29 26.7 °C 19.1 °C 1013.1 hPa WNW 0.3 km/h 7.4 km/h 63 % 0 mm
16:34 26.7 °C 19.3 °C 1013.1 hPa WNW 1.6 km/h 5.6 km/h 64 % 0 mm
16:39 26.7 °C 18.8 °C 1013.1 hPa NW 4.7 km/h 9.3 km/h 62 % 0 mm
16:44 26.6 °C 19.4 °C 1013.1 hPa WNW 2.1 km/h 8 km/h 65 % 0 mm
16:49 26.4 °C 18.8 °C 1013.1 hPa NW 4 km/h 4.8 km/h 63 % 0 mm
16:54 26.3 °C 18.7 °C 1013.1 hPa WNW 1.8 km/h 6.4 km/h 63 % 0 mm
16:59 26.2 °C 18.4 °C 1013.1 hPa WNW 1.8 km/h 9.3 km/h 62 % 0 mm
17:04 26.2 °C 18.3 °C 1013.1 hPa WNW 4.3 km/h 5.6 km/h 62 % 0 mm
17:09 26.2 °C 17.8 °C 1013.1 hPa WNW 5.5 km/h 11.1 km/h 60 % 0 mm
17:14 26.1 °C 18.5 °C 1013.1 hPa NNW 1.4 km/h 9.3 km/h 63 % 0 mm
17:19 26.1 °C 18.4 °C 1013.1 hPa WNW 3.1 km/h 11.3 km/h 63 % 0 mm
17:24 26 °C 18.9 °C 1013.1 hPa WNW 1 km/h 5.6 km/h 65 % 0 mm
17:29 25.9 °C 18.8 °C 1013.1 hPa NW 0.6 km/h 5.6 km/h 65 % 0 mm
17:34 25.8 °C 18.8 °C 1013.1 hPa NNW 1.4 km/h 5.6 km/h 65 % 0 mm
17:40 25.7 °C 18.9 °C 1013.1 hPa NW 1.9 km/h 5.6 km/h 66 % 0 mm
17:45 25.7 °C 18.6 °C 1013.4 hPa WNW 4.5 km/h 9.3 km/h 65 % 0 mm
17:50 25.6 °C 19 °C 1013.4 hPa NW 0.5 km/h 3.7 km/h 67 % 0 mm
17:55 25.5 °C 18.9 °C 1013.4 hPa NNW 0.5 km/h 5.6 km/h 67 % 0 mm
18:00 25.4 °C 19.1 °C 1013.4 hPa WNW 0.5 km/h 7.4 km/h 68 % 0 mm
18:05 25.3 °C 18.2 °C 1013.8 hPa WNW 2.1 km/h 5.6 km/h 65 % 0 mm
18:10 25.3 °C 18.7 °C 1013.4 hPa NW 0.2 km/h 3.7 km/h 67 % 0 mm
18:15 25.3 °C 18.7 °C 1013.8 hPa NNW 0.3 km/h 3.7 km/h 67 % 0 mm
18:20 25.2 °C 18.7 °C 1013.8 hPa WNW 3.1 km/h 11.1 km/h 67 % 0 mm
18:25 25.2 °C 18.4 °C 1013.8 hPa WNW 1.3 km/h 6.4 km/h 66 % 0 mm
18:30 25.2 °C 18.4 °C 1013.8 hPa WNW 3.4 km/h 5.6 km/h 66 % 0 mm
18:35 25.2 °C 18.1 °C 1013.8 hPa West 0.5 km/h 1.9 km/h 65 % 0 mm
18:40 25.1 °C 18.3 °C 1013.8 hPa Calm   1.9 km/h 66 % 0 mm
18:45 25 °C 17.7 °C 1013.8 hPa WNW 1.3 km/h 5.6 km/h 64 % 0 mm
18:50 24.9 °C 17.7 °C 1014.1 hPa WNW 1 km/h 5.6 km/h 64 % 0 mm
18:55 24.9 °C 18.1 °C 1014.1 hPa Calm     66 % 0 mm
19:00 24.8 °C 17.8 °C 1014.1 hPa WNW 4.5 km/h 5.6 km/h 65 % 0 mm
19:05 24.8 °C 17.5 °C 1014.1 hPa WNW 2.6 km/h 5.6 km/h 64 % 0 mm
19:10 24.7 °C 17.7 °C 1014.1 hPa WNW 0.6 km/h 5.6 km/h 65 % 0 mm
19:15 24.6 °C 17.6 °C 1014.1 hPa Calm     65 % 0 mm
19:20 24.6 °C 17.8 °C 1014.4 hPa Calm     66 % 0 mm
19:25 24.4 °C 17.6 °C 1014.8 hPa Calm     66 % 0 mm
19:30 24.3 °C 17.6 °C 1014.8 hPa Calm     66 % 0 mm
19:35 24.2 °C 17.4 °C 1014.8 hPa Calm     66 % 0 mm
19:41 24.1 °C 17.8 °C 1014.8 hPa Calm   1.6 km/h 68 % 0 mm
19:46 23.8 °C 17.8 °C 1014.8 hPa Calm     69 % 0 mm
19:51 23.7 °C 17.7 °C 1015.1 hPa Calm     69 % 0 mm
19:56 23.4 °C 17.9 °C 1015.1 hPa Calm     71 % 0 mm
20:01 23.2 °C 17.9 °C 1015.1 hPa Calm     72 % 0 mm
20:06 23 °C 17.9 °C 1015.1 hPa Calm     73 % 0 mm
20:11 22.8 °C 18.1 °C 1015.1 hPa Calm     75 % 0 mm
20:16 22.6 °C 18.1 °C 1015.5 hPa Calm     76 % 0 mm
20:21 22.4 °C 17.9 °C 1015.1 hPa Calm     76 % 0 mm
20:26 22.2 °C 17.9 °C 1015.5 hPa Calm     77 % 0 mm
20:31 21.9 °C 17.7 °C 1015.5 hPa Calm     77 % 0 mm
20:36 21.7 °C 17.7 °C 1015.5 hPa Calm     78 % 0 mm
20:41 21.5 °C 17.5 °C 1015.8 hPa Calm   1.6 km/h 78 % 0 mm
20:46 21.3 °C 17.5 °C 1015.8 hPa Calm   1.6 km/h 79 % 0 mm
20:51 21.1 °C 17.3 °C 1015.5 hPa Calm     79 % 0 mm
20:56 21 °C 17.2 °C 1015.8 hPa Calm     79 % 0 mm
21:01 20.8 °C 17.2 °C 1015.8 hPa Calm     80 % 0 mm
21:06 20.6 °C 17.2 °C 1015.8 hPa Calm     81 % 0 mm
21:11 20.4 °C 17.1 °C 1015.8 hPa Calm     81 % 0 mm
21:16 20.3 °C 16.9 °C 1015.8 hPa Calm     81 % 0 mm
21:21 20.2 °C 17.1 °C 1015.8 hPa Calm     82 % 0 mm
21:26 20.1 °C 16.9 °C 1016.1 hPa Calm     82 % 0 mm
21:31 19.9 °C 16.8 °C 1016.1 hPa Calm   1.9 km/h 82 % 0 mm
21:36 19.8 °C 16.7 °C 1016.1 hPa WNW 0.2 km/h 1.9 km/h 82 % 0 mm
21:41 19.7 °C 16.8 °C 1016.1 hPa Calm     83 % 0 mm
21:42 19.7 °C 16.8 °C 1016.1 hPa Calm   1.9 km/h 83 % 0 mm
21:48 19.6 °C 16.8 °C 1016.1 hPa WNW 0.2 km/h 1.9 km/h 84 % 0 mm
21:53 19.5 °C 16.7 °C 1016.1 hPa WNW 0.2 km/h 1.9 km/h 84 % 0 mm
21:58 19.4 °C 16.7 °C 1016.1 hPa Calm   1.9 km/h 84 % 0 mm
22:03 19.3 °C 16.6 °C 1016.1 hPa Calm     84 % 0 mm
22:08 19.3 °C 16.5 °C 1016.5 hPa Calm     84 % 0 mm
22:13 19.2 °C 16.4 °C 1016.5 hPa Calm     84 % 0 mm
22:18 19.2 °C 16.4 °C 1016.5 hPa Calm     84 % 0 mm
22:23 19.1 °C 16.3 °C 1016.5 hPa Calm     84 % 0 mm
22:28 19.1 °C 16.3 °C 1016.5 hPa WNW 0.2 km/h 1.9 km/h 84 % 0 mm
22:33 19 °C 16.2 °C 1016.5 hPa Calm     84 % 0 mm
22:38 19 °C 16.2 °C 1016.5 hPa Calm     84 % 0 mm
22:43 18.9 °C 16.4 °C 1016.5 hPa Calm     85 % 0 mm
22:48 18.9 °C 16.4 °C 1016.5 hPa Calm     85 % 0 mm
22:53 18.9 °C 16.3 °C 1016.8 hPa Calm     85 % 0 mm
22:58 18.9 °C 16.5 °C 1016.8 hPa Calm     86 % 0 mm
23:03 18.9 °C 16.5 °C 1016.8 hPa Calm     86 % 0 mm
23:08 18.9 °C 16.5 °C 1016.8 hPa Calm     86 % 0 mm
23:14 18.9 °C 16.5 °C 1016.8 hPa Calm     86 % 0 mm
23:18 18.9 °C 16.5 °C 1016.8 hPa Calm     86 % 0 mm
23:19 18.9 °C 16.5 °C 1016.8 hPa Calm     86 % 0 mm
23:23 18.9 °C 16.5 °C 1016.8 hPa Calm     86 % 0 mm
23:24 18.9 °C 16.5 °C 1016.8 hPa Calm     86 % 0 mm
23:28 18.9 °C 16.5 °C 1016.8 hPa Calm     86 % 0 mm
23:33 18.9 °C 16.5 °C 1016.8 hPa Calm     86 % 0 mm
23:38 18.9 °C 16.7 °C 1016.8 hPa Calm     87 % 0 mm
23:43 18.9 °C 16.7 °C 1017.2 hPa Calm     87 % 0 mm
23:48 18.9 °C 16.7 °C 1017.2 hPa Calm     87 % 0 mm
23:53 18.9 °C 16.7 °C 1017.2 hPa Calm     87 % 0 mm
23:58 18.8 °C 16.6 °C 1017.2 hPa Calm     87 % 0 mm
Crab Meadow Weather
Compliments of Weather Underground - 3 mb

Script developed by  Jim McMurry - jmcmurry@mwt.net Adapted for the template by  Wim van der Kuil - Leuven-Template.eu

Astronomy: Neptune was discovered in 1846 (over 150 years ago). Since that time it has still yet to make a complete orbit around the sun, because one Neptune year lasts 165 Earth years!